FW1349 Weather Reports


time (UTC)temp
C
wind
direction
speed
KPH
gust
KPH
rain 1hr
cm
rain 24hr
cm
rain mn
cm
humidity
%
barometer
mb
20260504050016 11 0.0 0.0 0.00 0.00 0.00 55
20260504045037 12 0.0 0.0 0.00 0.00 0.00 53
20260504044015 12 0.0 0.0 0.00 0.00 0.00 52
20260504043016 12 0.0 0.0 0.00 0.00 0.00 51
20260504042016 12 0.0 0.0 0.00 0.00 0.00 50
20260504041036 13 0.0 0.0 0.00 0.00 0.00 49
20260504040016 13 0.0 0.0 0.00 0.00 0.00 49
20260504035016 13 0.0 0.0 0.00 0.00 0.00 46
20260504034015 13 0.0 0.0 0.00 0.00 0.00 46
20260504033016 14 0.0 0.0 0.00 0.00 0.00 44
20260504032015 15 0.0 0.0 0.00 0.00 0.00 43
20260504031016 15 0.0 0.0 0.00 0.00 0.00 42
20260504030015 15 0.0 0.0 0.00 0.00 0.00 41
20260504025016 16 0.0 0.0 0.00 0.00 0.00 39
20260504024015 16 0.0 0.0 0.00 0.00 0.00 38
20260504023037 17 0.0 0.0 0.00 0.00 0.00 36
20260504022037 17 0.0 0.0 0.00 0.00 0.00 35
20260504021038 18 0.0 0.0 0.00 0.00 0.00 35
20260504020017 18 0.0 0.0 0.00 0.00 0.00 35
20260504015017 18 0.0 0.0 0.00 0.00 0.00 31
20260504014017 19 0.0 0.0 0.00 0.00 0.00 30
20260504013058 19 0.0 3.2 0.00 0.00 0.00 29
20260504012017 20 68 1.6 6.4 0.00 0.00 0.00 29
20260504011017 20 0.0 1.6 0.00 0.00 0.00 29
20260504010018 20 315 1.6 3.2 0.00 0.00 0.00 28
20260504005038 20 45 1.6 3.2 0.00 0.00 0.00 27
20260504004057 20 68 3.2 6.4 0.00 0.00 0.00 27
20260504003017 20 45 3.2 9.7 0.00 0.00 0.00 27
20260504002016 21 68 4.8 17.7 0.00 0.00 0.00 26
20260504001058 21 68 3.2 11.3 0.00 0.00 0.00 26
20260504000016 21 45 4.8 12.9 0.00 0.00 0.00 25
20260503235017 21 90 3.2 11.3 0.00 0.00 0.00 25
20260503234017 22 113 3.2 4.8 0.00 0.00 0.00 25
20260503233017 22 90 4.8 9.7 0.00 0.00 0.00 24
20260503232017 22 113 3.2 6.4 0.00 0.00 0.00 23
20260503231016 22 135 6.4 16.1 0.00 0.00 0.00 23
20260503230017 23 68 4.8 11.3 0.00 0.00 0.00 22
20260503225016 23 68 4.8 14.5 0.00 0.00 0.00 24
20260503224037 23 45 4.8 11.3 0.00 0.00 0.00 23
20260503223016 23 90 6.4 14.5 0.00 0.00 0.00 23
20260503222016 23 90 3.2 9.7 0.00 0.00 0.00 24
20260503221037 23 90 4.8 11.3 0.00 0.00 0.00 25
20260503220016 23 45 6.4 17.7 0.00 0.00 0.00 24
20260503215016 23 90 6.4 14.5 0.00 0.00 0.00 23
20260503214017 22 113 6.4 12.9 0.00 0.00 0.00 24
20260503213036 23 113 8.0 17.7 0.00 0.00 0.00 24
20260503212016 23 113 8.0 17.7 0.00 0.00 0.00 25
20260503211017 23 113 8.0 16.1 0.00 0.00 0.00 25
20260503210016 23 113 6.4 16.1 0.00 0.00 0.00 25
20260503205017 23 90 4.8 11.3 0.00 0.00 0.00 26
20260503204016 22 113 4.8 16.1 0.00 0.00 0.00 27
20260503203037 22 68 6.4 16.1 0.00 0.00 0.00 27
20260503202016 22 113 4.8 16.1 0.00 0.00 0.00 29
20260503201016 22 90 4.8 16.1 0.00 0.00 0.00 28
20260503200017 22 90 6.4 12.9 0.00 0.00 0.00 28
20260503195016 22 113 8.0 16.1 0.00 0.00 0.00 26
20260503194016 22 68 6.4 14.5 0.00 0.00 0.00 28
20260503193015 22 90 9.7 20.9 0.00 0.00 0.00 28
20260503192016 22 90 8.0 16.1 0.00 0.00 0.00 28
20260503191015 22 113 4.8 14.5 0.00 0.00 0.00 29
20260503190015 22 68 6.4 19.3 0.00 0.00 0.00 27
20260503185056 21 113 6.4 14.5 0.00 0.00 0.00 28
20260503184016 21 90 8.0 14.5 0.00 0.00 0.00 30
20260503183015 21 68 6.4 16.1 0.00 0.00 0.00 32
20260503182018 21 68 6.4 16.1 0.00 0.00 0.00 34
20260503181017 21 45 6.4 16.1 0.00 0.00 0.00 34
20260503180017 21 90 8.0 22.5 0.00 0.00 0.00 34
20260503175018 21 45 8.0 19.3 0.00 0.00 0.00 36
20260503174017 21 113 6.4 14.5 0.00 0.00 0.00 34
20260503173017 21 90 8.0 19.3 0.00 0.00 0.00 36
20260503172017 21 68 6.4 14.5 0.00 0.00 0.00 36
20260503171038 21 90 6.4 17.7 0.00 0.00 0.00 39
20260503131016 12 68 3.2 12.9 0.00 0.00 0.00 54
20260503081017 15 180 1.6 6.4 0.00 0.00 0.00 45